K7AKT Weather Reports


Display with metric or nautical units.
time (UTC)temp
F
wind
direction
speed
MPH
gust
MPH
rain 1hr
in
rain 24hr
in
rain mn
in
humidity
%
barometer
mb
20260504204038 76 315 4.0 10.0 0.00 0.00 0.00 30 1012.0
20260504203038 76 45 4.0 9.0 0.00 0.00 0.00 26 1011.8
20260504202038 74 68 3.0 10.0 0.00 0.00 0.00 26 1012.1
20260504201018 73 68 2.0 7.0 0.00 0.00 0.00 28 1012.0
20260504200038 72 270 6.0 17.0 0.00 0.00 0.00 31 1012.1
20260504195038 73 270 5.0 10.0 0.00 0.00 0.00 31 1012.6
20260504194018 72 293 6.0 13.0 0.00 0.00 0.00 31 1012.7
20260504193018 71 293 5.0 10.0 0.00 0.00 0.00 32 1012.8
20260504192038 72 293 3.0 7.0 0.00 0.00 0.00 31 1012.7
20260504191018 71 293 5.0 9.0 0.00 0.00 0.00 34 1013.0
20260504190018 71 293 6.0 11.0 0.00 0.00 0.00 34 1013.0
20260504185018 72 0 3.0 6.0 0.00 0.00 0.00 34 1013.1
20260504184018 72 293 2.0 7.0 0.00 0.00 0.00 36 1013.2
20260504183018 71 293 3.0 7.0 0.00 0.00 0.00 35 1013.3
20260504182018 71 203 2.0 8.0 0.00 0.00 0.00 34 1013.3
20260504181018 70 293 4.0 9.0 0.00 0.00 0.00 34 1013.1
20260504180018 70 315 3.0 7.0 0.00 0.00 0.00 36 1013.3
20260504175018 69 315 1.0 4.0 0.00 0.00 0.00 39 1013.3
20260504174038 69 315 3.0 9.0 0.00 0.00 0.00 40 1013.4
20260504173018 68 270 3.0 9.0 0.00 0.00 0.00 39 1013.4
20260504172018 67 293 4.0 8.0 0.00 0.00 0.00 40 1013.5
20260504171018 67 270 4.0 8.0 0.00 0.00 0.00 40 1013.5
20260504151018 51 180 1.0 3.0 0.00 0.00 0.00 82 1012.4